Regional Weather Roundup
Issued by NWS

Home | Current Version | Previous Version | Text Only | Print | Product List | Glossary On
Versions: 1 2 3 4 5 6 7 8 9 10 11 12 13 14 15 16 17 18 19 20 21 22 23 24 25 26 27 28 29 30 31 32 33 34 35 36 37 38 39 40 41 42 43 44 45 46 47 48 49 50
000
ASUS46 KLOX 300512
RWRCA

SOUTHERN CALIFORNIA WEATHER ROUNDUP
NATIONAL WEATHER SERVICE OXNARD CALIFORNIA
900 PM PST THU JAN 29 2015

NOTE: "FAIR" INDICATES FEW OR NO CLOUDS BELOW 12,000 FEET WITH NO
SIGNIFICANT WEATHER AND/OR OBSTRUCTIONS TO VISIBILITY.

  -  STATIONS PRECEEDED BY AN ASTERISK (*) ARE NOT NWS OR FAA
     STATIONS AND ARE NOT SUBJECT TO NWS AND FAA QUALITY CONTROL.

CAZ041-042-087-300600-
LA AND ORANGE COUNTY COASTAL AREAS


CITY           SKY/WX    TMP DP  RH WIND       PRES   REMARKS
L.A. DOWNTOWN  CLOUDY    64  49  57 CALM      30.02F
L.A. AIRPORT   LGT RAIN  64  49  57 W7        30.02F
LONG BEACH     CLOUDY    65  52  62 W3        30.02F

CITY           SKY/WX    TMP DP  RH WIND       PRES   REMARKS
AVALON           N/A    N/A N/A N/A MISG        N/A
FULLERTON      CLOUDY    66  48  52 E5        30.01F
HAWTHORNE      CLOUDY    67  50  54 CALM      30.03S
*LEO CARRILLO    N/A     63  47  56 N6          N/A
*LOS ALAMITOS  CLOUDY    61  55  79 W5        30.01F
*REDONDO BEACH   N/A     61  55  78 CALM      30.03S
SANTA ANA      CLOUDY    68  48  48 CALM      30.02S
STA MONICA APT LGT RAIN  65  48  54 CALM      30.03S
*STA MON PIER    N/A     64  54  69 NW1       30.02S
*UCLA            N/A     63  45  51 N5        30.01R

$$

CAZ547-548-048-300600-
LA COUNTY VALLEYS AND INLAND EMPIRE


CITY           SKY/WX    TMP DP  RH WIND       PRES   REMARKS
BURBANK        CLOUDY    64  45  49 CALM      30.03S
VAN NUYS       CLOUDY    64  43  46 E3        30.03S

CITY           SKY/WX    TMP DP  RH WIND       PRES   REMARKS
CORONA AIRPORT CLOUDY    62  47  58 CALM      30.03F
CHINO          CLOUDY    62  49  62 CALM      30.04S
MARCH AFB      CLOUDY    60  41  50 CALM      30.03S
*NORTHRIDGE      N/A     64  39  39 E1          N/A
ONTARIO        CLOUDY    63  45  51 VRB5      30.03S
*PASADENA        N/A     64  48  55 CALM        N/A
RIVERSIDE      CLOUDY    65  40  39 CALM      30.03S
SAN BERNARDINO CLOUDY    63  36  36 N9        30.04
*SAN RAFAEL HI   N/A     61  38  43 S5          N/A
*SAUGUS          N/A     62  40  45 SE6         N/A
*WHITEMAN AP   NOT AVBL
*WOODLAND HILL   N/A     61  43  51 S2          N/A

$$

CAZ054-055-300600-
LA AND SAN BERNARDINO COUNTY MOUNTAINS


CITY           SKY/WX    TMP DP  RH WIND       PRES   REMARKS
*ACTON           N/A     57  40  53 N2          N/A
*BIG BEAR AIRP RAIN      32  32 100 CALM      30.15S
*BIG PINES       N/A     36  33  90 CALM        N/A
MT WILSON NWS    N/A     43  34  70 MISG        N/A
SANDBERG       CLOUDY    53  37  54 E3        30.12S

$$

CAZ028-029-059-060-099-300600-
ANTELOPE VALLEY AND SURROUNDING AREAS


CITY           SKY/WX    TMP DP  RH WIND       PRES   REMARKS
LANCASTER      CLOUDY    53  46  77 W6        30.08R
PALMDALE       CLOUDY    54  46  74 CALM      30.08S
*POPPY PARK      N/A     54  46  73 CALM        N/A

CITY           SKY/WX    TMP DP  RH WIND       PRES   REMARKS
29 PALMS       CLOUDY    57  46  66 W9        30.13S
BARSTOW/DAGGET LGT RAIN  57  49  74 CALM      30.07S
BISHOP         MOCLDY    48  30  49 N5        30.12R
CHINA LAKE     CLOUDY    55  48  77 CALM      30.08R
EDWARDS AFB    DRIZZLE   57  48  72 VRB1      30.06R
MOJAVE         MOCLDY    55  45  67 NE5       30.09S
NEEDLES        LGT RAIN  64  43  46 N5        30.02R
VICTORVILLE    CLOUDY    55  37  50 SE12      30.09R

$$

CAZ039-040-300600-
VENTURA AND SANTA BARBARA COUNTY COAST


CITY           SKY/WX    TMP DP  RH WIND       PRES   REMARKS
CAMARILLO      CLOUDY    62  54  74 SE3       30.02R
NWS OXNARD       N/A     62  56  81 CALM      30.02R
OXNARD AIRPORT CLOUDY    63  58  83 SW3       30.02R
*POINT MUGU    CLOUDY    64  58  80 CALM      30.03R
SBA APT/GOLETA CLEAR     56  51  84 CALM      30.00S
*SANTA BARBARA   N/A     62  54  74 CALM      30.08S
*VENTURA         N/A     63  56  76 CALM      30.05S

$$

CAZ044-045-300600-
VENTURA COUNTY VALLEYS


CITY           SKY/WX    TMP DP  RH WIND       PRES   REMARKS
*SIMI VALLEY     N/A     62  47  58 CALM      30.00R
*OJAI            N/A     58  49  74 CALM      29.98S

$$

CAZ053-300600-
VENTURA COUNTY MOUNTAINS


CITY           SKY/WX    TMP DP  RH WIND       PRES   REMARKS
*LOCKWOOD VLY    N/A     43  36  75 MISG        N/A
*ROSE VALLEY     N/A     50  48  93 MISG        N/A

$$

CAZ034-035-036-300600-
CENTRAL COAST AND SANTA YNEZ VALLEY


CITY           SKY/WX    TMP DP  RH WIND       PRES   REMARKS
SAN LUIS OBISP CLEAR     50  45  83 SE5       30.04R
SANTA MARIA    CLEAR     53  47  79 S7        30.04S

CITY           SKY/WX    TMP DP  RH WIND       PRES   REMARKS
*CAL POLY SLO    N/A     52  48  87 CALM        N/A
*LOMPOC        CLEAR     48  43  81 E3        30.05S
*PISMO BEACH     N/A     55  49  81 NE1       30.04S
*SANTA YNEZ    FAIR      50  46  87 CALM      30.05S

$$

CAZ037-038-051-300600-
SAN LUIS OBISPO COUNTY INTERIOR AND CUYAMA VALLEY


CITY           SKY/WX    TMP DP  RH WIND       PRES   REMARKS
*CUYAMA          N/A     49  46  90 CALM      30.06R
PASO ROBLES    CLEAR     50  46  86 SE3       30.06S

$$

CAZ032-033-061-300600-
SOUTHERN DESERTS


CITY           SKY/WX    TMP DP  RH WIND       PRES   REMARKS
BLYTHE         CLOUDY    62  54  74 SW6       30.00S
IMPERIAL       CLOUDY    64  48  56 S3        29.98R
PALM SPRINGS   LGT RAIN  69  44  40 VRB5      30.04R
THERMAL        CLOUDY    69  44  40 W10       29.97F

$$

ELSEWHERE ACROSS THE WESTERN UNITED STATES AND MEXICO


CITY           SKY/WX    TMP DP  RH WIND       PRES   REMARKS
DENVER, CO     CLOUDY    36  25  64 S13       30.33F WCI  27
GRAND CANYON,  LGT RAIN  38  36  92 E12       30.21S FOG     WCI  30
HONOLULU, HI   MOCLDY    75  66  73 SW13      29.86R
KAHULUI, MAUI  CLEAR     75  64  69 SW16G26   29.85
LAKE TAHOE, CA CLOUDY    35  29  78 CALM      30.19R
LAS VEGAS, NV  CLOUDY    59  40  49 SW7       30.03S
MAMMOTH LAKES, CLOUDY    32  23  69 CALM      30.20S
MEXICO CITY, M MOCLDY    55  30  38 N6        30.38S
PHOENIX, AZ    CLOUDY    60  57  89 CALM      30.01F
PORTLAND, OR   CLEAR     42  36  79 CALM      30.30R
RENO, NV       CLOUDY    48  34  58 E3        30.19S
SALT LAKE CITY CLOUDY    39  34  82 CALM      30.27S
SAN DIEGO, CA  LGT RAIN  63  56  78 CALM      30.04R
SAN FRANCISCO, CLEAR     56  53  90 W14       30.08S
SAN JOSE, CA   CLEAR     52  49  89 W6        30.08S
SEATTLE, WA    CLEAR     45  37  73 N9        30.30F
TIJUANA, MEX   MOCLDY    59  52  77 CALM      30.04F

$$

STATION/POSITION TIME  TEMP    WIND        PRES    VSBY  WAVE
                       AIR SEA DIR/SP/G                  HT/PER
                 (UTC) (F)     (DEG/KT/KT) (MB)    (MI)  (FT/S)
POINT ARGUELLO B NOT AVBL
WEST SANTA BARBA 0500   60 60  320/ 14/ 16 1015.7R         7/17
POINT CONCEPTION NOT AVBL
EAST SANTA BARBA NOT AVBL
SANTA MONICA BAY 0500   63 62  190/  2/  4 1016.9R         3/12


USA.gov is the U.S. government's official web portal to all federal, state and local government web resources and services.